星链-31884 (STARLINK-31884 )

导读 | 星芒AI

STARLINK-31884 是 SpaceX Starlink 卫星互联网项目中的一颗低轨卫星,属于 Starlink 群体通信网络的一部分。该卫星由 SpaceX 发射,旨在为全球用户提供高速互联网服务,特别是在网络基础设施不足的地区。它运行在约 550 公里的轨道高度,采用先进通信技术,支持宽带数据传输。Starlink 项目致力于构建一个由数千颗卫星组成的星座,以实现全球覆盖和低延迟通信。STARLINK-31884 的部署有助于提升 Starlink 网络的稳定性和服务能力。

基本信息
目录编号:
59676
目录名称:
STARLINK-31884
国际标识:
2024-084Y
轨道中心:
EARTH
卫星名称:
星链-31884
卫星全名:
星链-31884 (STARLINK-31884 )
卫星状态:
在轨 (已飞行546 天)
发射日期:
2024-05-06 UTC
国别 :
美国 (US)
星等 :
--
轨道信息
数据来源 国际轨道数据
星历时间: 2025-11-01T22:21:33+0800
1天前
查看轨道信息
半长轴: 6861.2km
偏心率: 0.0000891
轨道倾角: 43.003°
近地点辐角 259.673°
升交点赤经 45.170°
平近点角 100.402°
近地点: 482.453km
远地点: 483.677km
周期: 94.267分钟
每日圈数: 15.275756
详细信息
固有亮度:
5
最大亮度:
1.5
卫星平台:
Starlink v2.0 mini
覆盖范围:
全球
运营商:
太空探索技术公司
运营商所在国:
美国
制造商(研发单位):
太空探索技术公司
制造商所在国:
美国
使用方式:
暂无
卫星简介
星链(Starlink)计划是由太空探索技术公司(SpaceX)提出的一个巨型低轨卫星互联网星座项目,计划在2019年至2024年间在太空搭建由约1.2万颗卫星组成的“星链”网络,其中1584颗将部署在地球上空550千米处的近地轨道,并从2020年开始工作。该卫星仍在工作。
2D轨道图
3D轨道图
轨道高度分析图
轨道倾角分析图
轨道综合分析图
查看轨道综合分析图